Volver al catálogo

STARLINK-4100

ActivoComunicacionesVLEO
NORAD 53144·PAYLOAD·🇺🇸 United States

Lanzado Jul 17, 2022 desde Cape Canaveral Space Force Station

Loading…

Próximos Pases (próximas 24 horas)

TLE

ActualizadoSource: CelesTrak SupGP

Época: Sep 14, 2026, 20:58 UTC

1 53144C 22083N   26257.87409722 -.00007156  00000+0 -21713-3 0  2577
2 53144  53.1594  30.3069 0001172  78.0265  79.7364 15.33553648    16

Sigue STARLINK-4100 en tiempo real con AllMySat

Download on the App Store